TITAN 3C TRANSTAGE DEB, 38701

Orbit data source: Space-Track

TITAN 3C TRANSTAGE DEB, 38701 is space debris in GEO originally from a launch on Thu, 26 Sep 1968 UTC launched from the Air Force Eastern Test Range (AFETR). Debris objects in space refer to the collection of defunct objects orbiting the Earth. Examples of debris include non-operational satellites, rocket bodies, and fragments generated from explosions, collisions, or faulty payload assembly.

Not visible in the next 10 days
Identifier
38701, 1968-081AB
Orbit
GEO
Country
Flag of USUS
Related business
Manufacturer
Unknown
Mission
Spacecraft
Bus & Motor
Unknown
Mass
Unknown
Launch date (UTC)
1968-09-26 (58 years ago)
Launch vehicle
Unknown
Launch site
Air Force Eastern Test Range (AFETR)
Object type
Payload
Rocket body
Debris
Shape & HBR
Unknown shape, 1.1 m
Radar Cross Section
Small (<0.1 m²)

Expand to show TLE details & history
Last TLE update: 1 day ago

TLE from 1 day ago
0 TITAN 3C TRANSTAGE DEB
1 38701U 68081AB  26132.03824058  .00000017  00000-0  00000+0 0  9993
2 38701   2.3062  50.5035 0197815 282.1966  75.2976  1.01152063 19338
Epoch: 2026-05-12T00:55Z
TLE epoch observation values (Epoch: 2026-05-12T00:55:03.986Z)
Latitude
-0.00001°
Longitude
166.59739°
Altitude
35,344.489 km
Speed
3.098 km/s
True Right ascension
03h 20m 43s
True Declination
0° 00' 00"
Sunlit
Object was in daylight at epoch
Visualization orbit readout
Latitude
Unknown
Longitude
Unknown
Altitude
Unknown
Speed
Unknown
Apparent Right ascension
Unknown
Apparent Declination
Unknown
Sunlit
N/A
Visualization observer readout
Local Sidereal Time
09:41:08
Azimuth
Unknown
Elevation
Unknown
Doppler factor
Unknown
Orbital elements
Apogee altitude
36,371.944 km
Perigee altitude
34,713.43 km
Semi-major axis
41,920.824 km
Eccentricity
0.01978
Inclination
2.3062°
RAAN
50.5035°
Arg. of periapsis
282.1966°
True anomaly
77.50347°
Mean anomaly
75.2976°
Eccentric anomaly
76.39921°
Mean motion
0.25287 °/min
Orbital period
1,423.65 mins
BSTAR
0
Loading maneuver chart data...
Computing Atmospheric mass density...

Documentation

Showing up to 5 results
|